Wiscasset, ME

3:00 AM EST on December 10, 2019 (GMT -0500)
Wiscasset

Weather History for KIWI - November, 2019

Change the Weather History Date:

Saturday, November 16, 2019

  Actual Average Record
Temperature  
Mean Temperature 24 °F -  
Max Temperature 30 °F 43 °F 62 °F (2001)
Min Temperature 18 °F 27 °F 12 °F (1996)
Degree Days  
Heating Degree Days 41    
Moisture  
Dew Point 4 °F    
Average Humidity 43    
Maximum Humidity 60    
Minimum Humidity 28    
Precipitation  
Precipitation 0.00 in - - ()
Sea Level Pressure  
Sea Level Pressure 30.47 in    
Wind  
Wind Speed 4 mph ()    
Max Wind Speed 9 mph    
Max Gust Speed 21 mph    
Visibility 10.0 miles    
Events      
Averages and records for this station are not official NWS values.
T = Trace of Precipitation, MM = Missing Value Source: Averaged Metar Reports

Daily Weather History Graph

Daily Weather History Graph

Search for Another Location

Airport or City:

Astronomy

Nov. 16, 2019 Rise Set
Actual Time 6:34 AM EST 4:11 PM EST
Civil Twilight 6:03 AM EST 4:43 PM EST
Nautical Twilight 5:28 AM EST 5:18 PM EST
Astronomical Twilight 4:54 AM EST 5:52 PM EST
Moon 7:37 PM EST (11/16) 10:29 AM EST (11/16)
Length of Visible Light 10h 39m
Length of Day
9h 37m
Waning Gibbous, 82% of the Moon is Illuminated
Nov 16
Waning Gibbous
Nov 19
Last Quarter
Nov 26
New
Dec 4
First Quarter
Dec 12
Full

Hourly Weather History & Observations

Time (EST) Temp. Windchill Dew Point Humidity Pressure Visibility Wind Dir Wind Speed Gust Speed Precip Events Conditions
12:53 AM 28.9 °F 21.9 °F 10.9 °F 47% 30.23 in 10.0 mi Variable 6.9 mph 19.6 mph N/A   Clear
1:53 AM 27.0 °F 18.0 °F 6.1 °F 41% 30.29 in 10.0 mi NNW 9.2 mph 18.4 mph N/A   Clear
2:53 AM 25.0 °F - 5.0 °F 43% 30.33 in 10.0 mi North - - N/A   Clear
3:53 AM 21.9 °F 17.2 °F -0.0 °F 38% 30.36 in 10.0 mi Variable 3.5 mph 19.6 mph N/A   Clear
4:53 AM 19.9 °F 13.4 °F -2.0 °F 38% 30.40 in 10.0 mi Variable 4.6 mph - N/A   Clear
5:53 AM 19.0 °F 12.3 °F -0.0 °F 43% 30.43 in 10.0 mi West 4.6 mph - N/A   Clear
6:53 AM 18.0 °F 12.7 °F 1.0 °F 48% 30.47 in 10.0 mi Variable 3.5 mph - N/A   Clear
7:53 AM 19.0 °F 13.9 °F 1.0 °F 46% 30.51 in 10.0 mi Variable 3.5 mph - N/A   Clear
8:53 AM 21.0 °F 14.6 °F 1.9 °F 44% 30.52 in 10.0 mi Variable 4.6 mph - N/A   Clear
9:53 AM 24.1 °F 15.2 °F 3.0 °F 40% 30.52 in 10.0 mi WNW 8.1 mph - N/A   Clear
10:53 AM 26.1 °F 18.4 °F 1.9 °F 35% 30.52 in 10.0 mi Variable 6.9 mph - N/A   Clear
11:53 AM 28.9 °F - 3.0 °F 33% 30.49 in 10.0 mi Calm Calm - N/A   Clear
12:53 PM 28.9 °F 20.4 °F -0.9 °F 28% 30.48 in 10.0 mi NW 9.2 mph 20.7 mph N/A   Clear
1:53 PM 28.9 °F 22.8 °F -0.0 °F 29% 30.47 in 10.0 mi Variable 5.8 mph - N/A   Clear
2:53 PM 30.0 °F 24.1 °F 1.0 °F 29% 30.47 in 10.0 mi Variable 5.8 mph - N/A   Clear
3:53 PM 28.9 °F - 1.0 °F 30% 30.48 in 10.0 mi North - - N/A   Clear
4:53 PM 27.0 °F - 1.0 °F 33% 30.50 in 10.0 mi Calm Calm - N/A   Clear
5:53 PM 23.0 °F - 6.1 °F 48% 30.53 in 10.0 mi Calm Calm - N/A   Clear
6:53 PM 21.0 °F - 9.0 °F 60% 30.55 in 10.0 mi Calm Calm - N/A   Clear
7:53 PM 21.0 °F - 6.1 °F 53% 30.55 in 10.0 mi Calm Calm - N/A   Clear
8:53 PM 19.9 °F - 8.1 °F 60% 30.56 in 10.0 mi Calm Calm - N/A   Clear
9:53 PM 19.9 °F - 7.0 °F 57% 30.56 in 10.0 mi Calm Calm - N/A   Clear
10:53 PM 19.9 °F - 7.0 °F 57% 30.55 in 10.0 mi Calm Calm - N/A   Clear
11:53 PM 19.0 °F - 7.0 °F 59% 30.55 in 10.0 mi Calm Calm - N/A   Clear